Location: ??????
(42.0089°N, 44.3281°E)
Time: 13:20:32
(UTC+00:00)

USA 229 DEB - Pass Details

Date: 24 October 2021
Orbit: 944 x 1268 km, 63.4° (Epoch: 25 November)

Event Time Altitude Azimuth Distance (km) Brightness Sun altitude
Rises 15:36:43 0° 213° (SSW) 3,611 7.0 -17.2°
Reaches altitude 10° 15:39:12 10° 213° (SSW) 2,687 6.2 -17.7°
Maximum altitude 15:45:29 89° 123° (ESE) 1,004 3.5 -18.8°
Enters shadow 15:51:58 11° 36° (NE) 2,776 5.6 -20.0°
